When you browse on this site, cookies collect data to enhance your experience and personalize the content and advertising you see.
Visit our Privacy Policy to learn more. By continuing to use the site, you agree to this use of cookies and data.
  • In Latvia
  • List of Countries
  • For 7 days
  • Water Temperature
  • Satellite Maps
  • Weather Map
  • Weather Widgets
  • user-avatar
    Login

    Hourly Weather Eugene

    Today, 19 July, Friday

    Time Temperature Precipitation Wind Pressure Humidity
    00:00 +12°C° 0 mm 1 mps 751 mmHg 91%
    01:00 +11°C° 0 mm 1 mps 751 mmHg 93%
    02:00 +10°C° 0 mm 1 mps 751 mmHg 94%
    03:00 +10°C° 0 mm 1 mps 751 mmHg 95%
    04:00 +10°C° 0 mm 1 mps 751 mmHg 95%
    05:00 +11°C° 0 mm 1 mps 752 mmHg 89%
    06:00 +13°C° 0 mm 1 mps 752 mmHg 83%
    07:00 +14°C° 0 mm 1 mps 752 mmHg 77%
    08:00 +16°C° 0 mm 2 mps 752 mmHg 67%
    09:00 +18°C° 0 mm 3 mps 751 mmHg 58%
    10:00 +20°C° 0 mm 4 mps 751 mmHg 49%
    11:00 +21°C° 0 mm 4 mps 751 mmHg 47%
    12:00 +22°C° 0 mm 4 mps 750 mmHg 45%
    13:00 +23°C° 0 mm 4 mps 750 mmHg 43%
    14:00 +25°C° 0 mm 4 mps 750 mmHg 41%
    15:00 +25°C° 0 mm 4 mps 749 mmHg 40%
    16:00 +26°C° 0 mm 4 mps 749 mmHg 38%
    17:00 +24°C° 0 mm 3 mps 749 mmHg 44%
    18:00 +22°C° 0 mm 3 mps 749 mmHg 50%
    19:00 +20°C° 0 mm 2 mps 749 mmHg 56%
    20:00 +19°C° 0 mm 1 mps 749 mmHg 65%
    21:00 +16°C° 0 mm 1 mps 750 mmHg 74%
    22:00 +14°C° 0 mm 1 mps 750 mmHg 83%
    23:00 +13°C° 0 mm 1 mps 750 mmHg 86%

    Tomorrow, 20 July, Saturday

    Time Temperature Precipitation Wind Pressure Humidity
    00:00 +12°C° 0 mm 1 mps 750 mmHg 89%
    01:00 +12°C° 0 mm 1 mps 750 mmHg 91%
    02:00 +11°C° 0 mm 1 mps 750 mmHg 92%
    03:00 +11°C° 0 mm 1 mps 750 mmHg 93%
    04:00 +11°C° 0 mm 1 mps 750 mmHg 94%
    05:00 +12°C° 0 mm 1 mps 750 mmHg 87%
    06:00 +14°C° 0 mm 1 mps 750 mmHg 81%
    07:00 +15°C° 0 mm 1 mps 750 mmHg 74%
    08:00 +18°C° 0 mm 1 mps 750 mmHg 66%
    09:00 +20°C° 0 mm 2 mps 749 mmHg 57%
    10:00 +23°C° 0 mm 2 mps 749 mmHg 49%
    11:00 +24°C° 0 mm 2 mps 749 mmHg 46%
    12:00 +26°C° 0 mm 2 mps 749 mmHg 42%
    13:00 +28°C° 0 mm 3 mps 748 mmHg 38%
    14:00 +28°C° 0 mm 2 mps 748 mmHg 38%
    15:00 +29°C° 0 mm 2 mps 748 mmHg 37%
    16:00 +29°C° 0 mm 2 mps 748 mmHg 37%
    17:00 +28°C° 0 mm 2 mps 748 mmHg 44%
    18:00 +26°C° 0 mm 1 mps 748 mmHg 52%
    19:00 +24°C° 0 mm 1 mps 748 mmHg 60%
    20:00 +22°C° 0 mm 1 mps 748 mmHg 68%
    21:00 +19°C° 0 mm 1 mps 749 mmHg 77%
    22:00 +16°C° 0 mm 1 mps 749 mmHg 85%
    23:00 +14°C° 0 mm 0 mps 749 mmHg 88%

    Day after tomorrow, 21 July, Sunday

    Time Temperature Precipitation Wind Pressure Humidity
    00:00 +13°C° 0 mm 0 mps 749 mmHg 91%
    01:00 +12°C° 0 mm 0 mps 749 mmHg 94%
    02:00 +12°C° 0 mm 0 mps 749 mmHg 94%
    03:00 +12°C° 0 mm 0 mps 749 mmHg 95%
    04:00 +11°C° 0 mm 0 mps 749 mmHg 95%
    05:00 +13°C° 0 mm 0 mps 749 mmHg 89%
    06:00 +14°C° 0 mm 0 mps 749 mmHg 83%
    07:00 +16°C° 0 mm 0 mps 749 mmHg 78%
    08:00 +21°C° 0 mm 1 mps 749 mmHg 69%
    09:00 +23°C° 0 mm 1 mps 749 mmHg 60%
    10:00 +26°C° 0 mm 1 mps 748 mmHg 51%
    11:00 +27°C° 0 mm 2 mps 748 mmHg 48%
    12:00 +28°C° 0 mm 2 mps 748 mmHg 44%
    13:00 +30°C° 0 mm 2 mps 747 mmHg 40%
    14:00 +30°C° 0 mm 2 mps 747 mmHg 39%
    15:00 +31°C° 0 mm 2 mps 747 mmHg 38%
    16:00 +31°C° 0 mm 2 mps 747 mmHg 37%
    17:00 +29°C° 0 mm 2 mps 747 mmHg 45%
    18:00 +27°C° 0 mm 2 mps 747 mmHg 53%
    19:00 +25°C° 0 mm 1 mps 748 mmHg 61%
    20:00 +23°C° 0 mm 1 mps 748 mmHg 69%
    21:00 +20°C° 0 mm 1 mps 748 mmHg 77%
    22:00 +15°C° 0 mm 0 mps 749 mmHg 85%
    23:00 +16°C° 0 mm 1 mps 749 mmHg 88%

    22 July, Monday

    Time Temperature Precipitation Wind Pressure Humidity
    00:00 +15°C° 0 mm 1 mps 749 mmHg 91%
    01:00 +14°C° 0 mm 1 mps 749 mmHg 94%
    02:00 +14°C° 0 mm 1 mps 749 mmHg 95%
    03:00 +13°C° 0 mm 1 mps 749 mmHg 95%
    04:00 +13°C° 0 mm 1 mps 749 mmHg 96%
    05:00 +14°C° 0 mm 1 mps 749 mmHg 92%
    06:00 +15°C° 0 mm 1 mps 749 mmHg 87%
    07:00 +16°C° 0 mm 1 mps 750 mmHg 83%
    08:00 +19°C° 0 mm 1 mps 750 mmHg 74%
    09:00 +21°C° 0 mm 1 mps 750 mmHg 65%
    10:00 +23°C° 0 mm 2 mps 750 mmHg 57%
    11:00 +25°C° 0 mm 2 mps 750 mmHg 52%
    12:00 +27°C° 0 mm 2 mps 750 mmHg 47%
    13:00 +28°C° 0 mm 2 mps 750 mmHg 42%
    14:00 +29°C° 0 mm 2 mps 750 mmHg 41%
    15:00 +29°C° 0 mm 2 mps 750 mmHg 41%
    16:00 +29°C° 0 mm 2 mps 749 mmHg 40%
    17:00 +27°C° 0 mm 2 mps 750 mmHg 49%
    18:00 +25°C° 0 mm 2 mps 750 mmHg 58%
    19:00 +23°C° 0 mm 2 mps 751 mmHg 68%
    20:00 +21°C° 0 mm 1 mps 751 mmHg 77%
    21:00 +18°C° 0 mm 1 mps 751 mmHg 86%
    22:00 +15°C° 0 mm 1 mps 751 mmHg 95%
    23:00 +14°C° 0 mm 0 mps 751 mmHg 96%

    23 July, Tuesday

    Time Temperature Precipitation Wind Pressure Humidity
    00:00 +13°C° 0 mm 0 mps 751 mmHg 96%
    01:00 +13°C° 0 mm 0 mps 751 mmHg 97%
    02:00 +13°C° 0 mm 0 mps 751 mmHg 97%
    03:00 +12°C° 0 mm 0 mps 751 mmHg 97%
    04:00 +12°C° 0 mm 0 mps 751 mmHg 97%
    05:00 +13°C° 0 mm 0 mps 751 mmHg 94%
    06:00 +14°C° 0 mm 0 mps 751 mmHg 91%
    07:00 +15°C° 0 mm 0 mps 751 mmHg 88%
    08:00 +17°C° 0 mm 0 mps 752 mmHg 83%
    09:00 +18°C° 0 mm 0 mps 752 mmHg 77%
    10:00 +19°C° 0 mm 0 mps 752 mmHg 71%
    11:00 +20°C° 0 mm 0 mps 752 mmHg 66%
    12:00 +24°C° 0 mm 1 mps 752 mmHg 61%
    13:00 +25°C° 0 mm 1 mps 752 mmHg 57%
    14:00 +26°C° 0 mm 1 mps 752 mmHg 52%
    15:00 +27°C° 0 mm 1 mps 752 mmHg 48%
    16:00 +28°C° 0 mm 1 mps 752 mmHg 44%
    17:00 +25°C° 0 mm 1 mps 752 mmHg 50%
    18:00 +23°C° 0 mm 2 mps 752 mmHg 55%
    19:00 +20°C° 0 mm 2 mps 753 mmHg 61%
    20:00 +18°C° 0 mm 2 mps 753 mmHg 70%
    21:00 +15°C° 0 mm 1 mps 754 mmHg 79%
    22:00 +13°C° 0 mm 1 mps 754 mmHg 88%
    23:00 +11°C° 0 mm 0 mps 754 mmHg 90%

    24 July, Wednesday

    Time Temperature Precipitation Wind Pressure Humidity
    00:00 +11°C° 0 mm 0 mps 754 mmHg 92%
    01:00 +10°C° 0 mm 0 mps 754 mmHg 95%
    02:00 +10°C° 0 mm 0 mps 754 mmHg 95%
    03:00 +10°C° 0 mm 0 mps 755 mmHg 95%
    04:00 +9°C° 0 mm 0 mps 755 mmHg 96%
    05:00 +11°C° 0 mm 0 mps 755 mmHg 91%
    06:00 +12°C° 0 mm 0 mps 755 mmHg 85%
    07:00 +15°C° 0 mm 1 mps 755 mmHg 80%
    08:00 +18°C° 0 mm 1 mps 754 mmHg 70%
    09:00 +20°C° 0 mm 2 mps 754 mmHg 59%
    10:00 +23°C° 0 mm 2 mps 754 mmHg 49%
    11:00 +25°C° 0 mm 3 mps 754 mmHg 44%
    12:00 +26°C° 0 mm 3 mps 753 mmHg 39%
    13:00 +27°C° 0 mm 4 mps 753 mmHg 34%
    14:00 +28°C° 0 mm 4 mps 753 mmHg 34%
    15:00 +28°C° 0 mm 4 mps 752 mmHg 33%
    16:00 +28°C° 0 mm 4 mps 752 mmHg 32%
    17:00 +26°C° 0 mm 3 mps 752 mmHg 39%
    18:00 +25°C° 0 mm 2 mps 752 mmHg 46%
    19:00 +23°C° 0 mm 1 mps 752 mmHg 53%
    20:00 +20°C° 0 mm 1 mps 753 mmHg 63%
    21:00 +18°C° 0 mm 1 mps 753 mmHg 72%
    22:00 +15°C° 0 mm 1 mps 753 mmHg 81%
    23:00 +14°C° 0 mm 1 mps 753 mmHg 84%
    Show more